Regional Weather Roundup
Issued by NWS Little Rock, AR

Home | Current Version | Previous Version | Graphics & Text | Print | Product List | Glossary On
Versions: 1 2 3 4 5 6 7 8 9 10 11 12 13 14 15 16 17 18 19 20 21 22 23 24 25 26 27 28 29 30 31 32 33 34 35 36 37 38 39 40 41 42 43 44 45 46 47 48 49 50
000
ASUS44 KLZK 282205
RWRLZK

WEATHER ROUNDUP FOR ARKANSAS
NATIONAL WEATHER SERVICE LITTLE ROCK AR
500 PM CDT TUE JUL 28 2015

NOTE: "FAIR" INDICATES FEW OR NO CLOUDS BELOW 12,000 FEET WITH NO
SIGNIFICANT WEATHER AND/OR OBSTRUCTIONS TO VISIBILITY.

ARZ001-003-010-029-282300-
NORTHWEST ARKANSAS

CITY           SKY/WX    TMP DP  RH WIND       PRES   REMARKS
FAYETTEVILLE   MOSUNNY   91  74  57 S8        29.99F HX 100
FORT SMITH     MOSUNNY   98  69  38 E6        29.92F HX 104
HARRISON       MOSUNNY   92  74  55 S9        30.00F HX 101
BENTONVILLE    SUNNY     91  72  52 S10       30.00F HX  98
ROGERS         MOSUNNY   93  72  50 S13       29.99F HX 101
SILOAM SPGS    SUNNY     93  72  49 S12G17    29.97F HX 100
HIGHFILL       MOSUNNY   92  75  57 S9        29.99F HX 103
SPRINGDALE     MOSUNNY   91  72  52 SW7       30.01F HX  98
$$

ARZ004-005-016-282300-
NORTH CENTRAL ARKANSAS

CITY           SKY/WX    TMP DP  RH WIND       PRES   REMARKS
BATESVILLE     SUNNY     97  75  49 S7        29.95F HX 109
FLIPPIN        SUNNY    N/A N/A N/A S5          N/A
MTN HOME       SUNNY     93  74  53 S6        29.97F HX 103
$$

ARZ040-041-282300-
WEST CENTRAL ARKANSAS

CITY           SKY/WX    TMP DP  RH WIND       PRES   REMARKS
MENA           MOSUNNY   99  70  39 SE5       29.99F HX 105
MOUNT IDA      SUNNY     97  67  37 VRB3      29.96F HX 101
$$

ARZ009-017-025-026-028-282300-
NORTHEAST ARKANSAS

CITY           SKY/WX    TMP DP  RH WIND       PRES   REMARKS
JONESBORO      MOSUNNY   92  76  59 S8        29.94F HX 104
NEWPORT        SUNNY     98  74  46 S8        29.96F HX 109
WALNUT RIDGE   SUNNY     97  73  46 SW10G17   29.93F HX 107
BLYTHEVILLE    MOSUNNY   93  78  61 SW6       29.94F HX 108
$$

ARZ022-023-033-042-044-282300-
CENTRAL ARKANSAS

CITY           SKY/WX    TMP DP  RH WIND       PRES   REMARKS
LITTLE ROCK    MOSUNNY   97  72  44 S8        29.95F HX 105
N LITTLE ROCK  MOSUNNY   98  73  44 S7        29.95F HX 107
JACKSONVILLE   SUNNY    100  71  38 S8        29.94F HX 108
SEARCY         SUNNY     96  77  54 S10       29.96F HX 111
HOT SPRINGS    PTSUNNY   99  70  38 SW7       29.97S HX 106
RUSSELLVILLE   SUNNY     97  71  42 CALM      29.93F HX 104
CLINTON        FAIR      95  77  55 S3        29.97S HX 109
$$

ARZ036-282300-
EAST ARKANSAS

CITY           SKY/WX    TMP DP  RH WIND       PRES   REMARKS
WEST MEMPHIS   MOSUNNY   94  79  61 SW6       29.94F HX 111
$$

ARZ050-053-066-070-073-282300-
SOUTHWEST ARKANSAS

CITY           SKY/WX    TMP DP  RH WIND       PRES   REMARKS
ARKADELPHIA    FAIR     101  72  39 SW8       29.95F HX 110
CAMDEN         SUNNY     99  68  36 SE6       29.95F HX 104
TEXARKANA      SUNNY     98  68  37 S8        29.96F HX 103
EL DORADO      SUNNY     96  70  42 SW6       29.97F HX 102
DE QUEEN       SUNNY     96  72  45 S9        29.93F HX 104
$$

ARZ056-057-069-282300-
SOUTHEAST ARKANSAS

CITY           SKY/WX    TMP DP  RH WIND       PRES   REMARKS
PINE BLUFF     SUNNY     97  72  44 W6        29.96F HX 105
STUTTGART      SUNNY     99  73  44 SW7       29.96F HX 109
MONTICELLO     MOSUNNY   95  72  47 SE5       29.96F HX 103

$$




USA.gov is the U.S. government's official web portal to all federal, state and local government web resources and services.